This is the latest recevied weather packets stored in our database for station/object WX2NJ. If no packets are shown the sender has not sent any weather packets the latest 10 day(s).
| Time | Temp. | Humidity | Pressure | Rain* | Wind** | Luminosity | Snow |
|---|---|---|---|---|---|---|---|
| 1778080743 | 20° C | 71% | 1013.8 hPa | 0 mm | - | 223 W/m² | - |
| 1778080439 | 20° C | 71% | 1013.8 hPa | 0 mm | - | 104 W/m² | - |
| 1778080137 | 20° C | 70% | 1013.9 hPa | 0 mm | - | 60 W/m² | - |
| 1778079833 | 20° C | 70% | 1013.9 hPa | 0 mm | - | 65 W/m² | - |
| 1778079530 | 20° C | 70% | 1013.9 hPa | 0 mm | - | 92 W/m² | - |
| 1778079226 | 20° C | 70% | 1014.1 hPa | 0 mm | - | 120 W/m² | - |
| 1778078924 | 20.56° C | 69% | 1013.9 hPa | 0 mm | - | 120 W/m² | - |
| 1778078620 | 20.56° C | 69% | 1014 hPa | 0 mm | - | 152 W/m² | - |
| 1778078319 | 20.56° C | 68% | 1014 hPa | 0 mm | - | 214 W/m² | - |
| 1778078015 | 21.11° C | 68% | 1014 hPa | 0 mm | - | 268 W/m² | - |
| 1778077714 | 21.11° C | 68% | 1013.9 hPa | 0 mm | - | 235 W/m² | - |
| 1778077411 | 21.11° C | 67% | 1014 hPa | 0 mm | - | 258 W/m² | - |
| 1778077109 | 20.56° C | 68% | 1014 hPa | 0 mm | - | 196 W/m² | - |
| 1778076807 | 21.11° C | 67% | 1013.9 hPa | 0 mm | - | 153 W/m² | - |
| 1778076505 | 21.11° C | 66% | 1013.8 hPa | 0 mm | - | 142 W/m² | - |
| 1778076201 | 21.11° C | 66% | 1013.9 hPa | 0 mm | - | 175 W/m² | - |
| 1778075899 | 21.11° C | 65% | 1013.9 hPa | 0 mm | - | 164 W/m² | - |
| 1778075595 | 21.67° C | 64% | 1014 hPa | 0 mm | - | 192 W/m² | - |
| 1778075292 | 22.78° C | 63% | 1014 hPa | 0 mm | - | 301 W/m² | - |
| 1778074988 | 22.22° C | 63% | 1013.9 hPa | 0 mm | - | 270 W/m² | - |
| 1778074685 | 21.67° C | 65% | 1014 hPa | 0 mm | - | 214 W/m² | - |
| 1778074382 | 22.22° C | 63% | 1014.1 hPa | 0 mm | - | 182 W/m² | - |
| 1778074079 | 22.22° C | 63% | 1014.4 hPa | 0 mm | - | 256 W/m² | - |
| 1778073776 | 22.22° C | 64% | 1014.3 hPa | 0 mm | - | 270 W/m² | - |
| 1778073474 | 21.67° C | 64% | 1014.3 hPa | 0 mm | - | 220 W/m² | - |
* Rain latest hour (hover to see other rain measurements)
** Current wind speed in m/s (hover to see current wind gust speed)